| time (UTC) | temp F | wind direction | speed knots | gust knots | rain 1hr in | rain 24hr in | rain mn in | humidity % | barometer mb |
| 20260510104635 | 56 | 175 | 1.7 | 1.7 | 0.00 | 0.00 | 0.00 | 91 | 1014.0 |
| 20260510104132 | 56 | 170 | 0.9 | 0.9 | 0.00 | 0.00 | 0.00 | 91 | 1014.0 |
| 20260510103629 | 55 | 170 | 0.9 | 0.9 | 0.00 | 0.00 | 0.00 | 91 | 1013.8 |
| 20260510103125 | 56 | 159 | 1.7 | 0.9 | 0.00 | 0.00 | 0.00 | 92 | 1013.7 |
| 20260510102620 | 55 | 117 | 0.9 | 0.9 | 0.00 | 0.00 | 0.00 | 92 | 1013.5 |
| 20260510102116 | 55 | 117 | 0.9 | 0.9 | 0.00 | 0.00 | 0.00 | 93 | 1013.4 |
| 20260510101615 | 55 | 117 | 0.0 | 0.0 | 0.00 | 0.00 | 0.00 | 93 | 1013.7 |
| 20260510101112 | 55 | 116 | 0.0 | 0.0 | 0.00 | 0.00 | 0.00 | 93 | 1013.5 |
| 20260510100608 | 55 | 118 | 0.0 | 0.0 | 0.00 | 0.00 | 0.00 | 94 | 1013.2 |
| 20260510100106 | 55 | 116 | 0.9 | 0.9 | 0.00 | 0.00 | 0.00 | 93 | 1013.3 |
| 20260510095601 | 55 | 114 | 0.0 | 0.0 | 0.00 | 0.00 | 0.00 | 93 | 1013.2 |
| 20260510095056 | 55 | 117 | 0.0 | 0.0 | 0.00 | 0.00 | 0.00 | 93 | 1013.2 |
| 20260510094555 | 55 | 114 | 0.0 | 0.0 | 0.00 | 0.00 | 0.00 | 93 | 1013.1 |
| 20260510094051 | 55 | 117 | 0.0 | 0.0 | 0.00 | 0.00 | 0.00 | 92 | 1013.0 |
| 20260510093547 | 55 | 117 | 0.0 | 0.0 | 0.00 | 0.00 | 0.00 | 92 | 1012.8 |
| 20260510093044 | 55 | 114 | 0.9 | 0.9 | 0.00 | 0.00 | 0.00 | 92 | 1012.8 |
| 20260510092541 | 55 | 117 | 0.9 | 0.0 | 0.00 | 0.00 | 0.00 | 92 | 1012.9 |
| 20260510092040 | 55 | 117 | 0.0 | 0.0 | 0.00 | 0.00 | 0.00 | 92 | 1012.7 |
| 20260510091538 | 55 | 117 | 0.0 | 0.0 | 0.00 | 0.00 | 0.00 | 91 | 1012.5 |
| 20260510091033 | 56 | 117 | 0.0 | 0.0 | 0.00 | 0.00 | 0.00 | 91 | 1012.6 |
| 20260510090531 | 56 | 117 | 0.0 | 0.0 | 0.00 | 0.00 | 0.00 | 90 | 1012.3 |
| 20260510090026 | 56 | 114 | 0.0 | 0.0 | 0.00 | 0.00 | 0.00 | 90 | 1012.4 |
| 20260510085527 | 56 | 117 | 0.9 | 0.0 | 0.00 | 0.00 | 0.00 | 89 | 1012.3 |
| 20260510085023 | 56 | 114 | 0.0 | 0.0 | 0.00 | 0.00 | 0.00 | 89 | 1012.3 |
| 20260510084520 | 57 | 117 | 0.9 | 0.9 | 0.00 | 0.00 | 0.00 | 88 | 1012.5 |
| 20260510084017 | 57 | 112 | 0.0 | 0.0 | 0.00 | 0.00 | 0.00 | 87 | 1012.4 |
| 20260510083513 | 57 | 112 | 0.0 | 0.0 | 0.00 | 0.00 | 0.00 | 87 | 1012.4 |
| 20260510083009 | 57 | 112 | 0.0 | 0.0 | 0.00 | 0.00 | 0.00 | 86 | 1012.3 |
| 20260510082507 | 58 | 112 | 0.0 | 0.0 | 0.00 | 0.00 | 0.00 | 85 | 1012.3 |
| 20260510082007 | 59 | 113 | 0.9 | 0.9 | 0.00 | 0.00 | 0.00 | 84 | 1012.2 |
| 20260510081502 | 59 | 112 | 0.0 | 0.0 | 0.00 | 0.00 | 0.00 | 83 | 1012.2 |
| 20260510080958 | 59 | 113 | 0.0 | 0.0 | 0.00 | 0.00 | 0.00 | 83 | 1012.1 |
| 20260510080457 | 60 | 113 | 0.0 | 0.0 | 0.00 | 0.00 | 0.00 | 81 | 1012.2 |
| 20260510075954 | 60 | 112 | 0.9 | 0.9 | 0.00 | 0.00 | 0.00 | 82 | 1012.3 |
| 20260510075452 | 60 | 112 | 0.0 | 0.0 | 0.00 | 0.00 | 0.00 | 80 | 1012.1 |
| 20260510074948 | 60 | 112 | 0.0 | 0.0 | 0.00 | 0.00 | 0.00 | 80 | 1012.2 |
| 20260510074446 | 60 | 112 | 0.0 | 0.0 | 0.00 | 0.00 | 0.00 | 81 | 1012.1 |
| 20260510073942 | 60 | 123 | 0.0 | 0.0 | 0.00 | 0.00 | 0.00 | 80 | 1012.2 |
| 20260510073437 | 61 | 110 | 0.0 | 0.0 | 0.00 | 0.00 | 0.00 | 79 | 1012.2 |
| 20260510072934 | 61 | 151 | 0.0 | 0.9 | 0.00 | 0.00 | 0.00 | 78 | 1012.1 |
| 20260510072431 | 61 | 169 | 0.9 | 1.7 | 0.00 | 0.00 | 0.00 | 77 | 1012.0 |
| 20260510071926 | 61 | 185 | 0.9 | 0.9 | 0.00 | 0.00 | 0.00 | 77 | 1011.9 |
| 20260510071423 | 61 | 155 | 0.9 | 0.9 | 0.00 | 0.00 | 0.00 | 77 | 1012.0 |
| 20260510070921 | 61 | 306 | 1.7 | 2.6 | 0.00 | 0.00 | 0.00 | 76 | 1012.0 |
| 20260510070418 | 62 | 137 | 0.9 | 0.9 | 0.00 | 0.00 | 0.00 | 77 | 1012.1 |
| 20260510065913 | 62 | 146 | 0.9 | 0.9 | 0.00 | 0.00 | 0.00 | 77 | 1012.1 |
| 20260510065410 | 62 | 309 | 2.6 | 2.6 | 0.00 | 0.00 | 0.00 | 76 | 1012.3 |
| 20260510064907 | 62 | 285 | 4.3 | 7.0 | 0.00 | 0.00 | 0.00 | 76 | 1012.4 |
| 20260510064405 | 62 | 289 | 3.5 | 3.5 | 0.00 | 0.00 | 0.00 | 78 | 1012.5 |
| 20260510063900 | 62 | 200 | 1.7 | 1.7 | 0.00 | 0.00 | 0.00 | 78 | 1012.3 |
| 20260510063357 | 62 | 243 | 3.5 | 2.6 | 0.00 | 0.00 | 0.00 | 79 | 1012.2 |
| 20260510062854 | 62 | 263 | 4.3 | 5.2 | 0.00 | 0.00 | 0.00 | 78 | 1012.0 |
| 20260510062349 | 62 | 245 | 2.6 | 2.6 | 0.00 | 0.00 | 0.00 | 79 | 1012.2 |
| 20260510061845 | 62 | 253 | 4.3 | 7.0 | 0.00 | 0.00 | 0.00 | 79 | 1011.9 |
| 20260510061342 | 62 | 277 | 1.7 | 1.7 | 0.00 | 0.00 | 0.00 | 79 | 1012.0 |
| 20260510060838 | 62 | 286 | 0.9 | 1.7 | 0.00 | 0.00 | 0.00 | 79 | 1012.1 |
| 20260510060335 | 63 | 270 | 5.2 | 7.0 | 0.00 | 0.00 | 0.00 | 79 | 1012.1 |
| 20260510055832 | 63 | 278 | 9.6 | 12.2 | 0.00 | 0.00 | 0.00 | 78 | 1012.2 |
| 20260510055331 | 60 | 243 | 4.3 | 6.1 | 0.00 | 0.00 | 0.00 | 94 | 1012.7 |
| 20260510054831 | 60 | 161 | 0.9 | 0.9 | 0.00 | 0.00 | 0.00 | 94 | 1011.1 |
| 20260510054326 | 59 | 161 | 0.9 | 0.0 | 0.00 | 0.00 | 0.00 | 94 | 1010.7 |
| 20260510053821 | 59 | 161 | 0.0 | 0.0 | 0.00 | 0.00 | 0.00 | 94 | 1010.8 |
| 20260510053317 | 59 | 161 | 0.0 | 0.0 | 0.00 | 0.00 | 0.00 | 94 | 1010.6 |
| 20260510052814 | 59 | 161 | 0.0 | 0.0 | 0.00 | 0.00 | 0.00 | 94 | 1010.5 |
| 20260510052309 | 59 | 161 | 0.0 | 0.0 | 0.00 | 0.00 | 0.00 | 94 | 1010.7 |
| 20260510051806 | 59 | 161 | 0.0 | 0.0 | 0.00 | 0.00 | 0.00 | 94 | 1010.6 |
| 20260510051303 | 59 | 161 | 0.0 | 0.0 | 0.00 | 0.00 | 0.00 | 93 | 1010.9 |
| 20260510050800 | 59 | 161 | 0.0 | 0.0 | 0.00 | 0.00 | 0.00 | 93 | 1010.8 |
| 20260510050256 | 59 | 161 | 0.0 | 0.0 | 0.00 | 0.00 | 0.00 | 93 | 1010.8 |
| 20260510045754 | 59 | 161 | 0.0 | 0.0 | 0.00 | 0.29 | 0.29 | 93 | 1010.7 |
| 20260510045250 | 59 | 161 | 0.0 | 0.0 | 0.00 | 0.29 | 0.29 | 93 | 1010.6 |
| 20260510044747 | 59 | 161 | 0.0 | 0.0 | 0.00 | 0.29 | 0.29 | 93 | 1010.7 |
| 20260510044244 | 59 | 161 | 0.9 | 0.9 | 0.00 | 0.29 | 0.29 | 92 | 1010.8 |
| 20260510043740 | 60 | 161 | 0.0 | 0.0 | 0.00 | 0.29 | 0.29 | 92 | 1010.7 |
| 20260510043237 | 60 | 161 | 0.0 | 0.0 | 0.00 | 0.29 | 0.29 | 92 | 1010.8 |
| 20260510042734 | 59 | 161 | 0.0 | 0.0 | 0.00 | 0.29 | 0.29 | 92 | 1010.9 |
| 20260510042229 | 59 | 161 | 0.9 | 0.0 | 0.00 | 0.29 | 0.29 | 92 | 1010.8 |
| 20260510041726 | 59 | 161 | 0.9 | 0.0 | 0.00 | 0.29 | 0.29 | 93 | 1010.8 |
| 20260510041224 | 59 | 161 | 0.0 | 0.0 | 0.00 | 0.29 | 0.29 | 93 | 1010.7 |
| 20260510040721 | 59 | 161 | 0.9 | 0.9 | 0.00 | 0.29 | 0.29 | 93 | 1010.6 |
| 20260510040218 | 59 | 161 | 0.0 | 0.0 | 0.00 | 0.29 | 0.29 | 93 | 1010.9 |
| 20260510035713 | 59 | 161 | 0.0 | 0.0 | 0.00 | 0.29 | 0.29 | 93 | 1011.0 |
| 20260510035209 | 59 | 161 | 0.0 | 0.0 | 0.00 | 0.29 | 0.29 | 92 | 1010.9 |
| 20260510034705 | 59 | 161 | 0.0 | 0.0 | 0.00 | 0.29 | 0.29 | 92 | 1010.8 |
| 20260510034203 | 59 | 161 | 0.0 | 0.0 | 0.00 | 0.29 | 0.29 | 91 | 1010.9 |
| 20260510033658 | 59 | 161 | 0.0 | 0.0 | 0.00 | 0.29 | 0.29 | 91 | 1010.9 |
| 20260510033157 | 59 | 161 | 0.0 | 0.0 | 0.00 | 0.29 | 0.29 | 90 | 1011.0 |
| 20260510032653 | 59 | 161 | 0.0 | 0.0 | 0.00 | 0.29 | 0.29 | 90 | 1011.0 |
| 20260510032149 | 59 | 161 | 0.0 | 0.0 | 0.00 | 0.29 | 0.29 | 90 | 1011.0 |
| 20260510031643 | 59 | 161 | 0.0 | 0.0 | 0.00 | 0.29 | 0.29 | 90 | 1010.8 |
| 20260510031141 | 59 | 161 | 0.0 | 0.0 | 0.00 | 0.29 | 0.29 | 90 | 1010.7 |
| 20260510030640 | 60 | 161 | 0.0 | 0.0 | 0.00 | 0.29 | 0.29 | 89 | 1010.9 |
| 20260510030138 | 60 | 161 | 0.0 | 0.0 | 0.00 | 0.29 | 0.29 | 88 | 1011.0 |
| 20260510025635 | 60 | 161 | 0.0 | 0.0 | 0.00 | 0.29 | 0.29 | 87 | 1010.7 |
| 20260510025132 | 60 | 161 | 0.0 | 0.0 | 0.00 | 0.29 | 0.29 | 87 | 1010.8 |
| 20260510024629 | 60 | 161 | 0.0 | 0.0 | 0.00 | 0.29 | 0.29 | 89 | 1010.8 |
| 20260510024126 | 60 | 161 | 0.0 | 0.0 | 0.00 | 0.29 | 0.29 | 87 | 1010.6 |
| 20260510023622 | 60 | 161 | 0.9 | 0.9 | 0.00 | 0.29 | 0.29 | 86 | 1010.6 |
| 20260510023119 | 61 | 161 | 0.0 | 0.0 | 0.00 | 0.29 | 0.29 | 86 | 1010.8 |
| 20260510022619 | 61 | 161 | 0.0 | 0.0 | 0.00 | 0.29 | 0.29 | 85 | 1010.6 |
| 20260510022114 | 61 | 161 | 0.0 | 0.0 | 0.00 | 0.29 | 0.29 | 84 | 1010.3 |
| 20260510021610 | 62 | 161 | 0.9 | 0.0 | 0.00 | 0.29 | 0.29 | 83 | 1010.3 |
| 20260510021109 | 61 | 161 | 0.0 | 0.0 | 0.00 | 0.29 | 0.29 | 81 | 1010.4 |
| 20260510020608 | 61 | 161 | 0.0 | 0.0 | 0.00 | 0.29 | 0.29 | 82 | 1010.1 |
| 20260510020103 | 61 | 161 | 0.0 | 0.0 | 0.00 | 0.29 | 0.29 | 83 | 1010.3 |
| 20260510015600 | 62 | 161 | 0.0 | 0.0 | 0.00 | 0.29 | 0.29 | 82 | 1010.0 |
| 20260510015056 | 62 | 161 | 0.0 | 0.0 | 0.00 | 0.29 | 0.29 | 82 | 1009.9 |
| 20260510014552 | 62 | 161 | 0.0 | 0.0 | 0.00 | 0.29 | 0.29 | 78 | 1009.7 |
| 20260510014050 | 63 | 161 | 0.0 | 0.0 | 0.00 | 0.29 | 0.29 | 77 | 1009.9 |
| 20260510013544 | 63 | 161 | 0.9 | 0.9 | 0.00 | 0.29 | 0.29 | 77 | 1009.8 |
| 20260510013040 | 64 | 161 | 0.0 | 0.0 | 0.00 | 0.29 | 0.29 | 75 | 1009.7 |
| 20260510012539 | 64 | 161 | 0.0 | 0.0 | 0.00 | 0.29 | 0.29 | 75 | 1009.7 |
| 20260510012036 | 65 | 161 | 0.0 | 0.0 | 0.00 | 0.29 | 0.29 | 75 | 1009.5 |
| 20260510011536 | 65 | 161 | 0.0 | 0.0 | 0.00 | 0.29 | 0.29 | 72 | 1009.5 |
| 20260510011032 | 66 | 161 | 0.0 | 0.0 | 0.00 | 0.29 | 0.29 | 69 | 1009.1 |
| 20260510010529 | 67 | 161 | 0.9 | 0.0 | 0.00 | 0.29 | 0.29 | 68 | 1009.5 |
| 20260510010026 | 68 | 161 | 0.9 | 0.0 | 0.00 | 0.29 | 0.29 | 67 | 1009.3 |
| 20260510005521 | 69 | 161 | 0.0 | 0.0 | 0.00 | 0.29 | 0.29 | 66 | 1009.4 |
| 20260510005019 | 70 | 161 | 0.0 | 0.0 | 0.00 | 0.29 | 0.29 | 64 | 1009.2 |
| 20260510004517 | 70 | 161 | 0.0 | 0.0 | 0.00 | 0.29 | 0.29 | 62 | 1009.0 |
| 20260510004015 | 71 | 161 | 0.0 | 0.0 | 0.00 | 0.29 | 0.29 | 62 | 1009.1 |
| 20260510003511 | 71 | 161 | 0.0 | 0.0 | 0.00 | 0.29 | 0.29 | 61 | 1008.9 |
| 20260510003006 | 72 | 161 | 0.9 | 0.9 | 0.00 | 0.29 | 0.29 | 59 | 1008.8 |
| 20260510002502 | 72 | 161 | 0.0 | 0.0 | 0.00 | 0.29 | 0.29 | 60 | 1008.7 |
| 20260510001959 | 73 | 161 | 0.0 | 0.0 | 0.00 | 0.29 | 0.29 | 61 | 1008.5 |
| 20260510001457 | 74 | 161 | 0.0 | 0.0 | 0.00 | 0.29 | 0.29 | 62 | 1008.8 |
| 20260510000954 | 75 | 161 | 0.0 | 0.0 | 0.00 | 0.29 | 0.29 | 58 | 1008.4 |
| 20260510000450 | 76 | 161 | 0.9 | 0.9 | 0.00 | 0.29 | 0.29 | 55 | 1008.8 |
| 20260509235947 | 77 | 148 | 0.9 | 0.9 | 0.00 | 0.29 | 0.29 | 53 | 1008.5 |
| 20260509235443 | 77 | 161 | 0.9 | 0.9 | 0.00 | 0.29 | 0.29 | 53 | 1008.5 |
| 20260509234940 | 77 | 288 | 1.7 | 0.9 | 0.00 | 0.29 | 0.29 | 53 | 1008.5 |
| 20260509234437 | 77 | 278 | 1.7 | 1.7 | 0.00 | 0.29 | 0.29 | 52 | 1008.4 |
| 20260509233934 | 78 | 188 | 0.9 | 0.9 | 0.00 | 0.29 | 0.29 | 52 | 1008.4 |
| 20260509233432 | 78 | 151 | 0.0 | 0.0 | 0.00 | 0.29 | 0.29 | 52 | 1008.6 |
| 20260509232928 | 78 | 154 | 0.0 | 0.0 | 0.00 | 0.29 | 0.29 | 52 | 1008.6 |
| 20260509232426 | 78 | 194 | 1.7 | 0.9 | 0.00 | 0.29 | 0.29 | 51 | 1008.4 |
| 20260509231921 | 77 | 354 | 0.9 | 0.9 | 0.00 | 0.29 | 0.29 | 52 | 1008.7 |
| 20260509231418 | 78 | 152 | 0.9 | 0.9 | 0.00 | 0.29 | 0.29 | 50 | 1008.5 |
| 20260509230916 | 77 | 313 | 1.7 | 2.6 | 0.00 | 0.29 | 0.29 | 50 | 1008.6 |
| 20260509230413 | 78 | 208 | 1.7 | 1.7 | 0.00 | 0.29 | 0.29 | 49 | 1008.6 |
| 20260509225908 | 78 | 272 | 5.2 | 6.1 | 0.00 | 0.29 | 0.29 | 48 | 1008.3 |
| 20260509225405 | 79 | 221 | 1.7 | 2.6 | 0.00 | 0.29 | 0.29 | 48 | 1008.4 |
| 20260509224901 | 78 | 224 | 0.9 | 1.7 | 0.00 | 0.29 | 0.29 | 49 | 1008.3 |
| 20260509224357 | 78 | 263 | 3.5 | 3.5 | 0.00 | 0.29 | 0.29 | 49 | 1008.4 |
| 20260509223855 | 78 | 276 | 4.3 | 5.2 | 0.00 | 0.29 | 0.29 | 48 | 1008.3 |
| 20260509223351 | 78 | 294 | 2.6 | 3.5 | 0.00 | 0.29 | 0.29 | 47 | 1008.5 |
| 20260509222848 | 78 | 234 | 2.6 | 2.6 | 0.00 | 0.29 | 0.29 | 48 | 1008.3 |
| 20260509222343 | 78 | 292 | 1.7 | 1.7 | 0.00 | 0.29 | 0.29 | 45 | 1008.3 |
| 20260509221838 | 78 | 309 | 2.6 | 2.6 | 0.00 | 0.29 | 0.29 | 45 | 1008.2 |
| 20260509221336 | 78 | 182 | 1.7 | 1.7 | 0.00 | 0.29 | 0.29 | 49 | 1008.3 |
| 20260509220837 | 79 | 236 | 2.6 | 3.5 | 0.00 | 0.29 | 0.29 | 44 | 1008.3 |
| 20260509220333 | 78 | 326 | 2.6 | 2.6 | 0.00 | 0.29 | 0.29 | 48 | 1008.2 |
| 20260509215829 | 78 | 255 | 2.6 | 6.1 | 0.00 | 0.29 | 0.29 | 46 | 1008.2 |
| 20260509215326 | 78 | 200 | 1.7 | 1.7 | 0.00 | 0.29 | 0.29 | 45 | 1008.2 |
| 20260509214823 | 79 | 229 | 2.6 | 3.5 | 0.00 | 0.29 | 0.29 | 46 | 1008.3 |
| 20260509214320 | 79 | 188 | 2.6 | 3.5 | 0.00 | 0.29 | 0.29 | 45 | 1008.6 |
| 20260509213817 | 78 | 242 | 1.7 | 2.6 | 0.00 | 0.29 | 0.29 | 49 | 1008.6 |
| 20260509213312 | 79 | 239 | 2.6 | 3.5 | 0.00 | 0.29 | 0.29 | 45 | 1008.4 |
| 20260509212810 | 78 | 51 | 1.7 | 3.5 | 0.00 | 0.29 | 0.29 | 49 | 1008.4 |
| 20260509212307 | 78 | 212 | 4.3 | 6.1 | 0.00 | 0.29 | 0.29 | 46 | 1008.1 |
| 20260509211803 | 78 | 206 | 1.7 | 1.7 | 0.00 | 0.29 | 0.29 | 49 | 1008.0 |
| 20260509211259 | 78 | 223 | 2.6 | 2.6 | 0.00 | 0.29 | 0.29 | 48 | 1008.3 |
| 20260509210756 | 78 | 190 | 1.7 | 3.5 | 0.00 | 0.29 | 0.29 | 47 | 1008.3 |
| 20260509210254 | 78 | 261 | 1.7 | 2.6 | 0.00 | 0.29 | 0.29 | 48 | 1008.4 |
| 20260509205753 | 78 | 349 | 3.5 | 3.5 | 0.00 | 0.29 | 0.29 | 49 | 1008.6 |
| 20260509205248 | 78 | 243 | 4.3 | 7.8 | 0.00 | 0.29 | 0.29 | 47 | 1008.5 |
| 20260509204744 | 79 | 357 | 2.6 | 1.7 | 0.00 | 0.29 | 0.29 | 49 | 1008.6 |
| 20260509204240 | 79 | 219 | 1.7 | 1.7 | 0.00 | 0.29 | 0.29 | 51 | 1008.5 |
| 20260509203737 | 78 | 222 | 1.7 | 1.7 | 0.00 | 0.29 | 0.29 | 51 | 1008.6 |
| 20260509203235 | 78 | 346 | 3.5 | 5.2 | 0.00 | 0.29 | 0.29 | 48 | 1008.6 |
| 20260509202730 | 78 | 278 | 4.3 | 7.0 | 0.00 | 0.29 | 0.29 | 49 | 1008.5 |
| 20260509202226 | 78 | 190 | 1.7 | 2.6 | 0.00 | 0.29 | 0.29 | 52 | 1008.6 |
| 20260509201721 | 77 | 183 | 3.5 | 6.1 | 0.00 | 0.29 | 0.29 | 51 | 1008.4 |
| 20260509201218 | 77 | 54 | 1.7 | 1.7 | 0.00 | 0.29 | 0.29 | 55 | 1008.4 |
| 20260509200714 | 77 | 192 | 1.7 | 1.7 | 0.00 | 0.29 | 0.29 | 54 | 1008.8 |
| 20260509200209 | 77 | 68 | 0.9 | 0.9 | 0.00 | 0.29 | 0.29 | 55 | 1008.8 |
| 20260509195705 | 77 | 205 | 1.7 | 2.6 | 0.00 | 0.29 | 0.29 | 54 | 1008.8 |
| 20260509195201 | 76 | 31 | 1.7 | 1.7 | 0.00 | 0.29 | 0.29 | 54 | 1008.8 |
| 20260509194701 | 77 | 106 | 1.7 | 2.6 | 0.00 | 0.29 | 0.29 | 53 | 1008.8 |
| 20260509194158 | 76 | 158 | 0.0 | 0.0 | 0.00 | 0.29 | 0.29 | 57 | 1008.9 |
| 20260509193654 | 76 | 334 | 2.6 | 3.5 | 0.00 | 0.29 | 0.29 | 55 | 1008.9 |
| 20260509193149 | 76 | 335 | 4.3 | 5.2 | 0.00 | 0.29 | 0.29 | 55 | 1009.0 |
| 20260509192646 | 75 | 292 | 1.7 | 1.7 | 0.00 | 0.29 | 0.29 | 55 | 1009.0 |
| 20260509192141 | 76 | 155 | 0.0 | 0.0 | 0.00 | 0.29 | 0.29 | 58 | 1009.0 |
| 20260509191641 | 76 | 130 | 0.9 | 0.9 | 0.00 | 0.29 | 0.29 | 58 | 1008.8 |
| 20260509191138 | 75 | 331 | 2.6 | 5.2 | 0.00 | 0.29 | 0.29 | 57 | 1009.0 |
| 20260509190634 | 75 | 189 | 0.9 | 0.9 | 0.00 | 0.29 | 0.29 | 57 | 1008.8 |
| 20260509190132 | 74 | 137 | 0.9 | 0.9 | 0.00 | 0.29 | 0.29 | 59 | 1008.9 |
| 20260509185630 | 74 | 325 | 3.5 | 5.2 | 0.00 | 0.29 | 0.29 | 56 | 1008.9 |
| 20260509185125 | 75 | 53 | 3.5 | 6.1 | 0.00 | 0.29 | 0.29 | 56 | 1009.0 |
| 20260509184624 | 74 | 270 | 2.6 | 3.5 | 0.00 | 0.29 | 0.29 | 58 | 1009.0 |
| 20260509184120 | 74 | 137 | 0.9 | 0.9 | 0.00 | 0.29 | 0.29 | 60 | 1009.2 |
| 20260509183616 | 74 | 179 | 1.7 | 1.7 | 0.00 | 0.29 | 0.29 | 61 | 1009.2 |
| 20260509183112 | 74 | 266 | 0.9 | 0.9 | 0.00 | 0.29 | 0.29 | 61 | 1009.1 |
| 20260509182608 | 74 | 37 | 0.9 | 0.9 | 0.00 | 0.29 | 0.29 | 61 | 1009.2 |
| 20260509182105 | 73 | 156 | 1.7 | 1.7 | 0.00 | 0.29 | 0.29 | 64 | 1009.2 |
| 20260509181603 | 73 | 315 | 3.5 | 3.5 | 0.00 | 0.29 | 0.29 | 61 | 1009.4 |
| 20260509181100 | 73 | 138 | 0.9 | 0.9 | 0.00 | 0.29 | 0.29 | 65 | 1009.3 |
| 20260509180556 | 72 | 153 | 1.7 | 1.7 | 0.00 | 0.29 | 0.29 | 64 | 1009.2 |
| 20260509180054 | 72 | 153 | 1.7 | 2.6 | 0.00 | 0.29 | 0.29 | 63 | 1009.5 |
| 20260509175548 | 72 | 169 | 1.7 | 2.6 | 0.00 | 0.29 | 0.29 | 66 | 1009.4 |
| 20260509175046 | 71 | 94 | 0.9 | 0.9 | 0.00 | 0.29 | 0.29 | 68 | 1009.5 |
| 20260509174543 | 71 | 285 | 0.9 | 0.9 | 0.00 | 0.29 | 0.29 | 67 | 1009.6 |
| 20260509174038 | 71 | 48 | 1.7 | 2.6 | 0.00 | 0.29 | 0.29 | 68 | 1009.8 |
| 20260509173538 | 69 | 301 | 1.7 | 1.7 | 0.00 | 0.29 | 0.29 | 67 | 1009.9 |
| 20260509173034 | 69 | 117 | 0.9 | 0.9 | 0.00 | 0.29 | 0.29 | 66 | 1009.8 |
| 20260509172532 | 69 | 145 | 3.5 | 3.5 | 0.00 | 0.29 | 0.29 | 70 | 1010.1 |
| 20260509172027 | 69 | 285 | 1.7 | 2.6 | 0.00 | 0.29 | 0.29 | 70 | 1010.0 |
| 20260509171523 | 69 | 196 | 0.9 | 1.7 | 0.00 | 0.29 | 0.29 | 70 | 1010.1 |
| 20260509171020 | 69 | 155 | 0.0 | 0.0 | 0.00 | 0.29 | 0.29 | 71 | 1010.2 |
| 20260509170515 | 68 | 26 | 0.9 | 1.7 | 0.00 | 0.29 | 0.29 | 72 | 1010.2 |
| 20260509170012 | 68 | 219 | 1.7 | 2.6 | 0.00 | 0.29 | 0.29 | 74 | 1010.0 |
| 20260509165510 | 68 | 213 | 2.6 | 2.6 | 0.00 | 0.29 | 0.29 | 74 | 1010.2 |
| 20260509165006 | 67 | 251 | 4.3 | 6.1 | 0.00 | 0.29 | 0.29 | 74 | 1010.3 |
| 20260509164502 | 67 | 216 | 1.7 | 1.7 | 0.00 | 0.29 | 0.29 | 72 | 1010.3 |
| 20260509163958 | 66 | 330 | 1.7 | 2.6 | 0.00 | 0.29 | 0.29 | 75 | 1010.5 |
| 20260509163456 | 66 | 264 | 3.5 | 3.5 | 0.00 | 0.29 | 0.29 | 73 | 1010.3 |
| 20260509162955 | 66 | 161 | 1.7 | 1.7 | 0.00 | 0.29 | 0.29 | 75 | 1010.4 |
| 20260509162454 | 66 | 287 | 2.6 | 1.7 | 0.00 | 0.29 | 0.29 | 77 | 1010.4 |
| 20260509161949 | 64 | 251 | 1.7 | 2.6 | 0.00 | 0.29 | 0.29 | 80 | 1010.5 |
| 20260509161446 | 64 | 247 | 2.6 | 2.6 | 0.00 | 0.29 | 0.29 | 80 | 1010.2 |
| 20260509160941 | 64 | 4 | 1.7 | 2.6 | 0.00 | 0.29 | 0.29 | 80 | 1010.3 |
| 20260509160438 | 64 | 250 | 0.9 | 1.7 | 0.00 | 0.29 | 0.29 | 78 | 1010.5 |
| 20260509155932 | 64 | 196 | 2.6 | 2.6 | 0.00 | 0.29 | 0.29 | 79 | 1010.4 |
| 20260509155429 | 63 | 272 | 2.6 | 3.5 | 0.00 | 0.29 | 0.29 | 79 | 1010.3 |
| 20260509154926 | 62 | 318 | 2.6 | 2.6 | 0.00 | 0.29 | 0.29 | 83 | 1010.2 |
| 20260509154422 | 62 | 181 | 0.9 | 1.7 | 0.00 | 0.29 | 0.29 | 81 | 1010.3 |
| 20260509153920 | 62 | 54 | 1.7 | 2.6 | 0.00 | 0.29 | 0.29 | 81 | 1010.4 |
| 20260509153416 | 61 | 124 | 0.9 | 0.9 | 0.00 | 0.29 | 0.29 | 84 | 1010.1 |
| 20260509152913 | 62 | 291 | 5.2 | 6.1 | 0.00 | 0.29 | 0.29 | 83 | 1009.9 |
| 20260509152409 | 61 | 270 | 1.7 | 1.7 | 0.00 | 0.29 | 0.29 | 84 | 1009.8 |
| 20260509151907 | 61 | 175 | 0.9 | 1.7 | 0.00 | 0.29 | 0.29 | 84 | 1009.7 |
| 20260509151402 | 60 | 307 | 3.5 | 5.2 | 0.00 | 0.29 | 0.29 | 87 | 1009.8 |
| 20260509150901 | 60 | 250 | 1.7 | 1.7 | 0.00 | 0.29 | 0.29 | 86 | 1009.7 |
| 20260509150358 | 60 | 200 | 2.6 | 2.6 | 0.00 | 0.29 | 0.29 | 87 | 1009.8 |
| 20260509145856 | 60 | 62 | 0.9 | 0.9 | 0.00 | 0.29 | 0.29 | 87 | 1009.8 |
| 20260509145350 | 60 | 213 | 2.6 | 2.6 | 0.00 | 0.29 | 0.29 | 86 | 1009.6 |
| 20260509144847 | 60 | 156 | 0.9 | 0.9 | 0.00 | 0.29 | 0.29 | 88 | 1009.7 |
| 20260509144344 | 59 | 237 | 0.9 | 0.9 | 0.00 | 0.29 | 0.29 | 88 | 1009.6 |
| 20260509143841 | 59 | 194 | 1.7 | 1.7 | 0.00 | 0.29 | 0.29 | 89 | 1009.7 |
| 20260509143338 | 59 | 209 | 3.5 | 5.2 | 0.00 | 0.29 | 0.29 | 88 | 1009.6 |
| 20260509142834 | 59 | 190 | 1.7 | 1.7 | 0.00 | 0.29 | 0.29 | 88 | 1009.6 |
| 20260509142331 | 58 | 208 | 1.7 | 1.7 | 0.00 | 0.29 | 0.29 | 90 | 1009.7 |
| 20260509141826 | 58 | 190 | 1.7 | 1.7 | 0.00 | 0.29 | 0.29 | 91 | 1009.9 |
| 20260509141328 | 58 | 260 | 2.6 | 2.6 | 0.00 | 0.29 | 0.29 | 90 | 1009.8 |
| 20260509140820 | 58 | 195 | 4.3 | 5.2 | 0.00 | 0.29 | 0.29 | 89 | 1009.9 |
| 20260509140317 | 58 | 198 | 1.7 | 1.7 | 0.00 | 0.29 | 0.29 | 92 | 1010.0 |
| 20260509135815 | 58 | 215 | 2.6 | 2.6 | 0.00 | 0.29 | 0.29 | 92 | 1009.8 |
| 20260509135312 | 57 | 176 | 0.0 | 0.9 | 0.00 | 0.29 | 0.29 | 93 | 1010.0 |
| 20260509134809 | 57 | 166 | 0.9 | 0.9 | 0.00 | 0.29 | 0.29 | 93 | 1009.7 |
| 20260509134307 | 57 | 175 | 0.9 | 0.9 | 0.00 | 0.29 | 0.29 | 94 | 1009.6 |
| 20260509133804 | 58 | 229 | 3.5 | 3.5 | 0.00 | 0.29 | 0.29 | 94 | 1009.8 |
| 20260509133300 | 58 | 206 | 0.9 | 0.9 | 0.00 | 0.29 | 0.29 | 94 | 1009.8 |
| 20260509132759 | 58 | 159 | 0.0 | 0.0 | 0.00 | 0.29 | 0.29 | 94 | 1009.6 |
| 20260509132257 | 57 | 166 | 1.7 | 1.7 | 0.00 | 0.29 | 0.29 | 95 | 1009.3 |
| 20260509131753 | 57 | 162 | 0.9 | 1.7 | 0.00 | 0.29 | 0.29 | 96 | 1009.5 |
| 20260509131250 | 57 | 190 | 1.7 | 1.7 | 0.00 | 0.29 | 0.29 | 96 | 1009.6 |
| 20260509130746 | 57 | 159 | 0.9 | 1.7 | 0.00 | 0.29 | 0.29 | 97 | 1009.6 |
| 20260509130242 | 56 | 101 | 0.9 | 0.9 | 0.00 | 0.29 | 0.29 | 97 | 1009.6 |
| 20260509125739 | 56 | 185 | 0.9 | 1.7 | 0.00 | 0.29 | 0.29 | 97 | 1009.5 |
| 20260509125236 | 56 | 175 | 0.9 | 1.7 | 0.00 | 0.29 | 0.29 | 98 | 1009.4 |
| 20260509124732 | 56 | 344 | 0.9 | 0.9 | 0.00 | 0.29 | 0.29 | 98 | 1009.4 |
| 20260509124229 | 56 | 174 | 0.9 | 0.9 | 0.00 | 0.29 | 0.29 | 98 | 1009.5 |
| 20260509123727 | 55 | 273 | 0.9 | 1.7 | 0.00 | 0.29 | 0.29 | 98 | 1009.6 |
| 20260509123224 | 56 | 20 | 1.7 | 1.7 | 0.00 | 0.29 | 0.29 | 98 | 1009.4 |
| 20260509122720 | 56 | 238 | 1.7 | 1.7 | 0.00 | 0.29 | 0.29 | 98 | 1009.4 |
| 20260509122217 | 56 | 165 | 0.9 | 0.9 | 0.00 | 0.29 | 0.29 | 98 | 1009.3 |
| 20260509121713 | 55 | 171 | 0.9 | 0.9 | 0.00 | 0.29 | 0.29 | 98 | 1009.5 |
| 20260509121211 | 55 | 143 | 0.0 | 0.0 | 0.00 | 0.29 | 0.29 | 99 | 1009.6 |
| 20260509120709 | 55 | 153 | 0.0 | 0.0 | 0.00 | 0.29 | 0.29 | 99 | 1009.2 |
| 20260509120207 | 54 | 149 | 0.0 | 0.0 | 0.00 | 0.29 | 0.29 | 99 | 1009.3 |
| 20260509115704 | 53 | 145 | 0.0 | 0.0 | 0.00 | 0.29 | 0.29 | 99 | 1009.0 |
| 20260509115201 | 53 | 143 | 0.0 | 0.0 | 0.00 | 0.29 | 0.29 | 99 | 1009.3 |
| 20260509114700 | 53 | 141 | 0.0 | 0.0 | 0.00 | 0.29 | 0.29 | 99 | 1009.1 |
| 20260509114158 | 53 | 137 | 0.0 | 0.0 | 0.00 | 0.29 | 0.29 | 99 | 1009.0 |
| 20260509113656 | 53 | 128 | 0.0 | 0.0 | 0.00 | 0.29 | 0.29 | 99 | 1008.9 |
| 20260509113153 | 53 | 118 | 0.9 | 0.9 | 0.00 | 0.29 | 0.29 | 99 | 1009.1 |
| 20260509112649 | 52 | 118 | 0.9 | 0.9 | 0.00 | 0.29 | 0.29 | 99 | 1009.1 |
| 20260509112147 | 52 | 119 | 0.0 | 0.0 | 0.00 | 0.29 | 0.29 | 99 | 1009.0 |
| 20260509111644 | 52 | 119 | 0.0 | 0.0 | 0.00 | 0.29 | 0.29 | 99 | 1008.9 |
| 20260509111140 | 52 | 119 | 0.0 | 0.0 | 0.00 | 0.29 | 0.29 | 99 | 1009.1 |
| 20260509110638 | 52 | 119 | 0.9 | 0.9 | 0.00 | 0.29 | 0.29 | 98 | 1009.0 |
| 20260509110135 | 52 | 119 | 0.0 | 0.0 | 0.00 | 0.29 | 0.29 | 98 | 1008.7 |
| 20260509105633 | 52 | 119 | 0.0 | 0.0 | 0.00 | 0.29 | 0.29 | 98 | 1008.8 |